| time (UTC) | temp C | wind direction | speed KPH | gust KPH | rain 1hr cm | rain 24hr cm | rain mn cm | humidity % | barometer mb |
| 20260903014021 | 22 | 0 | 0.0 | 1.6 | 0.00 | 1.14 | 1.14 | 96 | 1017.8 |
| 20260903013520 | 22 | 116 | 0.0 | 1.6 | 0.00 | 1.14 | 1.14 | 96 | 1017.7 |
| 20260903013046 | 22 | 0 | 0.0 | 1.6 | 0.00 | 1.14 | 1.14 | 96 | 1017.5 |
| 20260903011542 | 22 | 0 | 0.0 | 1.6 | 0.00 | 1.14 | 1.14 | 96 | 1017.2 |
| 20260903010040 | 22 | 152 | 0.0 | 3.2 | 0.00 | 1.14 | 1.14 | 95 | 1017.3 |
| 20260903005018 | 22 | 0 | 0.0 | 3.2 | 0.00 | 1.14 | 1.14 | 95 | 1017.3 |
| 20260903004547 | 22 | 0 | 0.0 | 1.6 | 0.00 | 1.14 | 1.14 | 95 | 1017.3 |
| 20260903004021 | 22 | 0 | 0.0 | 0.0 | 0.00 | 1.14 | 1.14 | 95 | 1017.4 |
| 20260903003521 | 22 | 0 | 0.0 | 1.6 | 0.00 | 1.14 | 1.14 | 95 | 1017.3 |
| 20260903003046 | 22 | 0 | 0.0 | 1.6 | 0.00 | 1.14 | 1.14 | 95 | 1017.1 |
| 20260903001543 | 22 | 0 | 0.0 | 1.6 | 0.00 | 1.14 | 1.14 | 95 | 1017.0 |
| 20260903000040 | 22 | 0 | 0.0 | 0.0 | 0.00 | 1.14 | 1.14 | 94 | 1017.3 |
| 20260902235022 | 22 | 0 | 0.0 | 0.0 | 0.00 | 1.14 | 1.14 | 94 | 1017.2 |
| 20260902234548 | 22 | 0 | 0.0 | 1.6 | 0.00 | 1.14 | 1.14 | 94 | 1017.2 |
| 20260902234020 | 22 | 0 | 0.0 | 1.6 | 0.00 | 1.14 | 1.14 | 93 | 1017.3 |
| 20260902233040 | 22 | 0 | 0.0 | 1.6 | 0.00 | 1.14 | 1.14 | 93 | 1017.3 |
| 20260902231548 | 23 | 0 | 0.0 | 1.6 | 0.00 | 1.14 | 1.14 | 91 | 1017.4 |
| 20260902230042 | 23 | 0 | 0.0 | 1.6 | 0.00 | 1.14 | 1.14 | 91 | 1017.3 |
| 20260902224545 | 23 | 228 | 0.0 | 4.8 | 0.00 | 1.14 | 1.14 | 89 | 1017.4 |
| 20260902223521 | 23 | 0 | 0.0 | 3.2 | 0.00 | 1.14 | 1.14 | 91 | 1017.2 |
| 20260902223044 | 23 | 147 | 0.0 | 3.2 | 0.00 | 1.14 | 1.14 | 89 | 1017.3 |
| 20260902221540 | 23 | 0 | 0.0 | 3.2 | 0.00 | 1.14 | 1.14 | 92 | 1017.4 |
| 20260902220043 | 23 | 0 | 0.0 | 1.6 | 0.00 | 1.14 | 1.14 | 93 | 1017.6 |
| 20260902214539 | 23 | 17 | 0.0 | 1.6 | 0.00 | 1.14 | 1.14 | 94 | 1017.7 |
| 20260902213040 | 23 | 0 | 0.0 | 1.6 | 0.00 | 1.14 | 1.14 | 94 | 1017.9 |
| 20260902211539 | 23 | 0 | 0.0 | 1.6 | 0.00 | 1.14 | 1.14 | 95 | 1017.8 |
| 20260902211021 | 22 | 0 | 0.0 | 0.0 | 0.00 | 1.14 | 1.14 | 95 | 1017.8 |
| 20260902210056 | 22 | 0 | 0.0 | 0.0 | 0.00 | 1.14 | 1.14 | 94 | 1017.9 |
| 20260902204547 | 22 | 0 | 0.0 | 1.6 | 0.00 | 1.14 | 1.14 | 94 | 1017.7 |
| 20260902203038 | 23 | 0 | 0.0 | 3.2 | 0.00 | 1.14 | 1.14 | 93 | 1017.6 |
| 20260902201540 | 23 | 0 | 0.0 | 3.2 | 0.00 | 1.14 | 1.14 | 93 | 1017.8 |
| 20260902200520 | 23 | 292 | 0.0 | 3.2 | 0.00 | 1.14 | 1.14 | 93 | 1018.0 |
| 20260902200040 | 23 | 0 | 0.0 | 3.2 | 0.00 | 1.14 | 1.14 | 93 | 1017.9 |
| 20260902194541 | 23 | 0 | 0.0 | 4.8 | 0.00 | 1.14 | 1.14 | 92 | 1017.7 |
| 20260902194025 | 23 | 160 | 0.0 | 3.2 | 0.00 | 1.14 | 1.14 | 92 | 1017.6 |
| 20260902193520 | 23 | 76 | 0.0 | 1.6 | 0.00 | 1.14 | 1.14 | 92 | 1017.6 |
| 20260902193048 | 23 | 76 | 0.0 | 1.6 | 0.00 | 1.14 | 1.14 | 90 | 1017.6 |
| 20260902191546 | 23 | 96 | 0.0 | 3.2 | 0.00 | 1.14 | 1.14 | 94 | 1017.2 |
| 20260902190052 | 22 | 0 | 1.6 | 3.2 | 0.00 | 1.14 | 1.14 | 95 | 1017.5 |
| 20260902184623 | 22 | 0 | 0.0 | 4.8 | 0.08 | 1.14 | 1.14 | 93 | 1018.0 |
| 20260902184025 | 22 | 5 | 0.0 | 4.8 | 0.15 | 1.14 | 1.14 | 94 | 1018.4 |
| 20260902183055 | 22 | 170 | 0.0 | 3.2 | 1.12 | 1.14 | 1.14 | 93 | 1018.3 |
| 20260902182522 | 22 | 0 | 0.0 | 3.2 | 1.14 | 1.14 | 1.14 | 93 | 1018.2 |
| 20260902182021 | 22 | 188 | 0.0 | 3.2 | 1.14 | 1.14 | 1.14 | 93 | 1018.5 |
| 20260902181541 | 22 | 0 | 0.0 | 1.6 | 1.14 | 1.14 | 1.14 | 92 | 1018.6 |
| 20260902180047 | 23 | 0 | 0.0 | 4.8 | 1.14 | 1.14 | 1.14 | 91 | 1019.5 |
| 20260902174542 | 23 | 0 | 0.0 | 3.2 | 1.07 | 1.07 | 1.07 | 88 | 1020.5 |
| 20260902173050 | 26 | 58 | 3.2 | 12.9 | 0.03 | 0.03 | 0.03 | 79 | 1021.8 |
| 20260902172523 | 27 | 246 | 3.2 | 12.9 | 0.00 | 0.00 | 0.00 | 76 | 1021.8 |
| 20260902172023 | 28 | 42 | 1.6 | 4.8 | 0.00 | 0.00 | 0.00 | 75 | 1021.1 |
| 20260902171541 | 28 | 48 | 1.6 | 9.7 | 0.00 | 0.00 | 0.00 | 75 | 1020.2 |
| 20260902171020 | 28 | 0 | 1.6 | 9.7 | 0.00 | 0.00 | 0.00 | 75 | 1019.7 |
| 20260902170038 | 28 | 125 | 1.6 | 11.3 | 0.00 | 0.00 | 0.00 | 75 | 1019.4 |
| 20260902164544 | 28 | 295 | 1.6 | 9.7 | 0.00 | 0.00 | 0.00 | 77 | 1019.0 |
| 20260902163052 | 28 | 148 | 1.6 | 8.0 | 0.00 | 0.00 | 0.00 | 77 | 1019.0 |
| 20260902162021 | 27 | 0 | 1.6 | 9.7 | 0.00 | 0.00 | 0.00 | 78 | 1019.1 |
| 20260902161549 | 27 | 167 | 3.2 | 9.7 | 0.00 | 0.00 | 0.00 | 77 | 1019.1 |
| 20260902160039 | 27 | 82 | 4.8 | 12.9 | 0.00 | 0.00 | 0.00 | 78 | 1018.9 |
| 20260902154539 | 27 | 162 | 4.8 | 9.7 | 0.00 | 0.00 | 0.00 | 77 | 1018.7 |
| 20260902154021 | 27 | 171 | 3.2 | 9.7 | 0.00 | 0.00 | 0.00 | 77 | 1018.7 |
| 20260902153039 | 27 | 201 | 1.6 | 9.7 | 0.00 | 0.00 | 0.00 | 78 | 1018.7 |
| 20260902151551 | 27 | 0 | 0.0 | 11.3 | 0.00 | 0.00 | 0.00 | 79 | 1018.8 |
| 20260902150039 | 27 | 116 | 3.2 | 11.3 | 0.00 | 0.00 | 0.00 | 78 | 1018.6 |
| 20260902145022 | 27 | 169 | 1.6 | 9.7 | 0.00 | 0.00 | 0.00 | 80 | 1018.7 |
| 20260902144540 | 27 | 53 | 1.6 | 9.7 | 0.00 | 0.00 | 0.00 | 80 | 1018.8 |
| 20260902143045 | 26 | 30 | 3.2 | 12.9 | 0.00 | 0.00 | 0.00 | 81 | 1018.9 |
| 20260902141542 | 26 | 109 | 3.2 | 8.0 | 0.00 | 0.00 | 0.00 | 82 | 1018.8 |
| 20260902140044 | 26 | 65 | 3.2 | 9.7 | 0.00 | 0.00 | 0.00 | 83 | 1018.8 |
| 20260902135520 | 26 | 188 | 1.6 | 9.7 | 0.00 | 0.00 | 0.00 | 84 | 1018.7 |
| 20260902135021 | 26 | 42 | 1.6 | 11.3 | 0.00 | 0.00 | 0.00 | 83 | 1018.6 |
| 20260902134554 | 26 | 51 | 1.6 | 11.3 | 0.00 | 0.00 | 0.00 | 84 | 1018.6 |
| 20260902133039 | 26 | 50 | 1.6 | 11.3 | 0.00 | 0.00 | 0.00 | 85 | 1018.5 |
| 20260902132021 | 26 | 19 | 4.8 | 11.3 | 0.00 | 0.00 | 0.00 | 85 | 1018.5 |
| 20260902131546 | 26 | 110 | 3.2 | 11.3 | 0.00 | 0.00 | 0.00 | 84 | 1018.4 |
| 20260902131020 | 26 | 50 | 3.2 | 12.9 | 0.00 | 0.00 | 0.00 | 84 | 1018.3 |
| 20260902130521 | 26 | 46 | 3.2 | 12.9 | 0.00 | 0.00 | 0.00 | 84 | 1018.3 |
| 20260902130051 | 26 | 0 | 0.0 | 6.4 | 0.00 | 0.00 | 0.00 | 86 | 1018.2 |
| 20260902124539 | 25 | 44 | 3.2 | 12.9 | 0.00 | 0.00 | 0.00 | 86 | 1018.1 |
| 20260902123040 | 25 | 291 | 1.6 | 9.7 | 0.00 | 0.00 | 0.00 | 88 | 1018.1 |
| 20260902122524 | 25 | 38 | 1.6 | 9.7 | 0.00 | 0.00 | 0.00 | 88 | 1018.0 |
| 20260902122019 | 25 | 86 | 1.6 | 9.7 | 0.00 | 0.00 | 0.00 | 89 | 1018.0 |
| 20260902121541 | 24 | 121 | 0.0 | 6.4 | 0.00 | 0.00 | 0.00 | 89 | 1018.0 |
| 20260902120042 | 24 | 69 | 1.6 | 6.4 | 0.00 | 0.00 | 0.00 | 90 | 1017.7 |
| 20260902114540 | 23 | 0 | 0.0 | 3.2 | 0.00 | 0.00 | 0.00 | 91 | 1017.8 |
| 20260902113520 | 23 | 0 | 0.0 | 3.2 | 0.00 | 0.00 | 0.00 | 92 | 1017.8 |
| 20260902113038 | 23 | 99 | 0.0 | 3.2 | 0.00 | 0.00 | 0.00 | 93 | 1017.8 |
| 20260902111544 | 22 | 0 | 0.0 | 0.0 | 0.00 | 0.00 | 0.00 | 94 | 1018.0 |
| 20260902110039 | 22 | 0 | 0.0 | 0.0 | 0.00 | 0.00 | 0.00 | 94 | 1017.9 |
| 20260902105521 | 22 | 0 | 0.0 | 0.0 | 0.00 | 0.00 | 0.00 | 94 | 1017.9 |
| 20260902104554 | 22 | 0 | 0.0 | 1.6 | 0.00 | 0.00 | 0.00 | 94 | 1017.7 |
| 20260902103044 | 22 | 0 | 0.0 | 0.0 | 0.00 | 0.00 | 0.00 | 93 | 1017.8 |
| 20260902101539 | 22 | 0 | 0.0 | 0.0 | 0.00 | 0.00 | 0.00 | 93 | 1017.5 |
| 20260902100106 | 22 | 0 | 0.0 | 0.0 | 0.00 | 0.00 | 0.00 | 92 | 1017.4 |
| 20260902094547 | 22 | 0 | 0.0 | 0.0 | 0.00 | 0.00 | 0.00 | 92 | 1017.4 |
| 20260902093044 | 22 | 0 | 0.0 | 0.0 | 0.00 | 0.00 | 0.00 | 92 | 1017.6 |
| 20260902091559 | 23 | 0 | 0.0 | 0.0 | 0.00 | 0.00 | 0.00 | 92 | 1017.5 |
| 20260902090039 | 23 | 0 | 0.0 | 1.6 | 0.00 | 0.00 | 0.00 | 91 | 1017.4 |
| 20260902084543 | 23 | 0 | 0.0 | 1.6 | 0.00 | 0.00 | 0.00 | 91 | 1017.4 |
| 20260902083044 | 23 | 0 | 0.0 | 0.0 | 0.00 | 0.00 | 0.00 | 91 | 1017.6 |
| 20260902081539 | 23 | 87 | 0.0 | 1.6 | 0.00 | 0.00 | 0.00 | 90 | 1017.5 |
| 20260902080054 | 23 | 95 | 0.0 | 1.6 | 0.00 | 0.00 | 0.00 | 89 | 1017.4 |
| 20260902075521 | 24 | 0 | 0.0 | 1.6 | 0.00 | 0.00 | 0.00 | 89 | 1017.5 |
| 20260902075021 | 24 | 0 | 0.0 | 1.6 | 0.00 | 0.00 | 0.00 | 89 | 1017.5 |
| 20260902074538 | 24 | 0 | 0.0 | 1.6 | 0.00 | 0.00 | 0.00 | 88 | 1017.5 |
| 20260902073043 | 24 | 0 | 0.0 | 3.2 | 0.00 | 0.00 | 0.00 | 87 | 1017.2 |
| 20260902071555 | 25 | 0 | 0.0 | 4.8 | 0.00 | 0.00 | 0.00 | 87 | 1017.2 |
| 20260902070040 | 25 | 73 | 0.0 | 4.8 | 0.00 | 0.00 | 0.00 | 86 | 1016.9 |
| 20260902064538 | 25 | 0 | 0.0 | 3.2 | 0.00 | 0.00 | 0.00 | 86 | 1016.7 |
| 20260902063045 | 25 | 0 | 0.0 | 4.8 | 0.00 | 0.00 | 0.00 | 85 | 1016.6 |
| 20260902062522 | 25 | 113 | 0.0 | 4.8 | 0.00 | 0.00 | 0.00 | 85 | 1016.5 |
| 20260902062020 | 25 | 0 | 0.0 | 1.6 | 0.00 | 0.00 | 0.00 | 85 | 1016.6 |
| 20260902061544 | 25 | 0 | 0.0 | 3.2 | 0.00 | 0.00 | 0.00 | 84 | 1016.6 |
| 20260902061020 | 25 | 0 | 0.0 | 4.8 | 0.00 | 0.00 | 0.00 | 84 | 1016.5 |
| 20260902060046 | 26 | 0 | 0.0 | 3.2 | 0.00 | 0.00 | 0.00 | 84 | 1016.5 |
| 20260902054545 | 26 | 124 | 0.0 | 11.3 | 0.00 | 0.00 | 0.00 | 83 | 1016.6 |
| 20260902053045 | 26 | 65 | 1.6 | 12.9 | 0.00 | 0.00 | 0.00 | 82 | 1016.6 |
| 20260902051538 | 26 | 51 | 0.0 | 4.8 | 0.00 | 0.00 | 0.00 | 82 | 1016.8 |
| 20260902050048 | 26 | 0 | 0.0 | 4.8 | 0.00 | 0.00 | 0.00 | 82 | 1016.4 |
| 20260902044542 | 26 | 0 | 0.0 | 9.7 | 0.00 | 0.00 | 0.00 | 82 | 1016.5 |
| 20260902043038 | 26 | 109 | 0.0 | 1.6 | 0.00 | 0.00 | 0.00 | 79 | 1016.4 |
| 20260902042521 | 26 | 0 | 0.0 | 1.6 | 0.00 | 0.00 | 0.00 | 78 | 1016.3 |
| 20260902042022 | 27 | 0 | 0.0 | 1.6 | 0.00 | 0.00 | 0.00 | 77 | 1016.2 |
| 20260902041542 | 27 | 117 | 0.0 | 1.6 | 0.00 | 0.00 | 0.00 | 76 | 1016.2 |
| 20260902040046 | 27 | 119 | 0.0 | 3.2 | 0.00 | 0.00 | 0.00 | 75 | 1016.0 |
| 20260902034541 | 27 | 0 | 0.0 | 1.6 | 0.00 | 0.00 | 0.00 | 74 | 1015.7 |
| 20260902033040 | 27 | 0 | 0.0 | 1.6 | 0.00 | 0.00 | 0.00 | 74 | 1015.2 |
| 20260902032521 | 27 | 0 | 0.0 | 1.6 | 0.00 | 0.00 | 0.00 | 73 | 1015.2 |
| 20260902031539 | 28 | 0 | 0.0 | 0.0 | 0.00 | 0.00 | 0.00 | 72 | 1015.1 |
| 20260902030045 | 28 | 190 | 0.0 | 1.6 | 0.00 | 0.00 | 0.00 | 71 | 1014.9 |
| 20260902024540 | 28 | 0 | 0.0 | 6.4 | 0.00 | 0.00 | 0.00 | 70 | 1014.6 |
| 20260902023039 | 28 | 0 | 0.0 | 8.0 | 0.00 | 0.00 | 0.00 | 71 | 1014.5 |
| 20260902022519 | 28 | 167 | 1.6 | 8.0 | 0.00 | 0.00 | 0.00 | 73 | 1014.6 |
| 20260902022018 | 28 | 0 | 1.6 | 6.4 | 0.00 | 0.00 | 0.00 | 73 | 1014.6 |
| 20260902021548 | 28 | 0 | 1.6 | 6.4 | 0.00 | 0.00 | 0.00 | 73 | 1014.7 |
| 20260902021024 | 28 | 178 | 1.6 | 4.8 | 0.00 | 0.00 | 0.00 | 72 | 1014.9 |
| 20260902020045 | 28 | 213 | 1.6 | 6.4 | 0.00 | 0.00 | 0.00 | 72 | 1014.9 |
| 20260902014544 | 29 | 173 | 0.0 | 4.8 | 0.00 | 0.00 | 0.00 | 72 | 1014.7 |